Location: Errabaliem
(16.8108°N, 80.4255°E)
Time: 16:22:06
(UTC+00:00)

NOSS 3-3 (A) - Pass Details

Date: 05 August 2024
Orbit: 734 x 1476 km, 63.4° (Epoch: 09 September)

Event Time Altitude Azimuth Distance (km) Brightness Sun altitude
Exits shadow 22:52:42 36° 208° (SSW) 1,163 4.0 -20.3°
Maximum altitude 22:54:49 86° 295° (WNW) 752 3.3 -19.8°
Drops below altitude 10° 23:00:08 10° 24° (NNE) 2,369 6.7 -18.6°
Sets 23:02:41 0° 25° (NNE) 3,378 7.6 -18.1°
